Tracking 20083 objects as of 8-Dec-2019
HD Live streaming from Space Station
objects crossing your sky now

FENGYUN 1C DEB

Track FENGYUN 1C DEB now!
10-day predictions


NORAD ID: 31738
Int'l Code: 1999-025CEM
Perigee: 741.0 km
Apogee: 1,234.1 km
Inclination: 99.5 °
Period: 104.7 minutes
Semi major axis: 7358 km
RCS: 0.0147 m2 (small)
Launch date: May 10, 1999
Source: People's Republic of China (PRC)
Launch site: Taiyaun Space Center, China (TSC)

Note: This is SATELLITE DEBRIS
aabbcc
Your satellite tracking list
Your tracking list is empty




NASA's NSSDC Master Catalog

Two Line Element Set (TLE):
1 31738U 99025CEM 19341.95497315  .00000328  00000-0  25634-3 0  9994
2 31738  99.5443  21.7128 0335010 122.7000 240.6923 13.75357372629177
Source of the keplerian elements: AFSPC